Regional Weather Roundup
Issued by NWS Little Rock, AR

Home | Current Version | Previous Version | Text Only | Print | Product List | Glossary Off
Versions: 1 2 3 4 5 6 7 8 9 10 11 12 13 14 15 16 17 18 19 20 21 22 23 24 25 26 27

000
ASUS44 KLZK 231305
RWRLZK

WEATHER ROUNDUP FOR ARKANSAS
NATIONAL WEATHER SERVICE LITTLE ROCK AR
800 AM CDT SAT JUL 23 2016

NOTE: "FAIR" INDICATES FEW OR NO CLOUDS BELOW 12,000 FEET WITH NO
SIGNIFICANT WEATHER AND/OR OBSTRUCTIONS TO VISIBILITY.

ARZ001-003-010-029-231400-
NORTHWEST ARKANSAS

CITY           SKY/WX    TMP DP  RH WIND       PRES   REMARKS
FAYETTEVILLE   SUNNY     76  75  97 CALM      30.03R
FORT SMITH     SUNNY     83  76  79 E6        29.98R HX  91
HARRISON       SUNNY     78  75  90 SE5       30.04R
BENTONVILLE    SUNNY     81  72  74 CALM      30.04R
ROGERS         SUNNY     80  75  84 SE3       30.04R HX  85
SILOAM SPGS    SUNNY     79  66  65 CALM      30.04R
HIGHFILL       SUNNY     80  75  84 SE3       30.03R HX  85
SPRINGDALE     SUNNY     81  73  78 SE3       30.05R HX  85
$$

ARZ004-005-016-231400-
NORTH CENTRAL ARKANSAS

CITY           SKY/WX    TMP DP  RH WIND       PRES   REMARKS
BATESVILLE     SUNNY     79  73  83 CALM      29.99R
FLIPPIN        SUNNY     79  73  83 CALM      29.99R
MTN HOME       SUNNY     79  73  82 CALM      30.01R
$$

ARZ040-041-231400-
WEST CENTRAL ARKANSAS

CITY           SKY/WX    TMP DP  RH WIND       PRES   REMARKS
MENA           SUNNY     81  77  89 CALM      30.02S HX  88
MOUNT IDA      SUNNY     81  76  84 CALM      29.98R HX  87
$$

ARZ009-017-025-026-028-231400-
NORTHEAST ARKANSAS

CITY           SKY/WX    TMP DP  RH WIND       PRES   REMARKS
CORNING          N/A     77  77 100 NE3       30.00R
JONESBORO      SUNNY     82  75  79 MISG      29.97R HX  89
NEWPORT        SUNNY     81  78  90 CALM      29.99R HX  89
WALNUT RIDGE   SUNNY     81  75  83 CALM      29.98R HX  86
BLYTHEVILLE    CLOUDY    79  75  87 SE3       29.98S
$$

ARZ022-023-033-042-044-231400-
CENTRAL ARKANSAS

CITY           SKY/WX    TMP DP  RH WIND       PRES   REMARKS
LITTLE ROCK    SUNNY     85  76  74 W5        29.98R HX  94
N LITTLE ROCK    N/A     82  77  85 CALM      29.95R HX  91
JACKSONVILLE   SUNNY     82  78  87 CALM      29.97S HX  90
SEARCY         SUNNY     83  78  85 CALM      30.00R HX  93
HOT SPRINGS    SUNNY     83  76  79 CALM      29.99S HX  91
RUSSELLVILLE   CLOUDY    82  76  81 CALM      29.97S HX  89
$$

ARZ036-231400-
EAST ARKANSAS

CITY           SKY/WX    TMP DP  RH WIND       PRES   REMARKS
WEST MEMPHIS   PTSUNNY   80  76  87 S6        29.96F HX  86
$$

ARZ050-053-066-070-073-231400-
SOUTHWEST ARKANSAS

CITY           SKY/WX    TMP DP  RH WIND       PRES   REMARKS
CAMDEN         SUNNY     81  75  83 S3        29.98S HX  86
TEXARKANA      MOSUNNY   82  74  76 S3        29.99R HX  88
EL DORADO      SUNNY     78  76  93 SW3       29.99S
DE QUEEN       MOSUNNY   81  77  88 CALM      29.97S FOG     HX  88
$$

ARZ056-057-069-231400-
SOUTHEAST ARKANSAS

CITY           SKY/WX    TMP DP  RH WIND       PRES   REMARKS
PINE BLUFF     SUNNY     79  76  90 S3        29.99R
STUTTGART      SUNNY     82  75  78 S5        29.98S HX  89
MONTICELLO     SUNNY     82  76  81 CALM      29.99S HX  89

$$






USA.gov is the U.S. government's official web portal to all federal, state and local government web resources and services.